This is the latest recevied weather packets stored in our database for station/object N4QD-13. If no packets are shown the sender has not sent any weather packets the latest 10 day(s).
| Time | Temp. | Humidity | Pressure | Rain* | Wind** | Luminosity | Snow |
|---|---|---|---|---|---|---|---|
| 1777362015 | 12.78° C | 72% | 1022.4 hPa | 0 mm | - | 0 W/m² | - |
| 1777361712 | 12.78° C | 72% | 1022.6 hPa | 0 mm | - | 0 W/m² | - |
| 1777361409 | 12.22° C | 72% | 1022.6 hPa | 0 mm | - | 0 W/m² | - |
| 1777361106 | 11.67° C | 76% | 1022.9 hPa | 0 mm | - | 0 W/m² | - |
| 1777360804 | 11.67° C | 76% | 1022.4 hPa | 0 mm | - | 0 W/m² | - |
| 1777360501 | 12.22° C | 75% | 1022.6 hPa | 0 mm | - | 0 W/m² | - |
| 1777360197 | 12.78° C | 71% | 1022.6 hPa | 0 mm | - | 0 W/m² | - |
| 1777359894 | 12.78° C | 70% | 1022.5 hPa | 0 mm | - | 0 W/m² | - |
| 1777359591 | 12.78° C | 69% | 1022.9 hPa | 0 mm | - | 0 W/m² | - |
| 1777359287 | 12.22° C | 71% | 1022.6 hPa | 0 mm | - | 0 W/m² | - |
| 1777358985 | 12.22° C | 73% | 1022.9 hPa | 0 mm | - | 0 W/m² | - |
| 1777358683 | 12.22° C | 73% | 1023 hPa | 0 mm | - | 0 W/m² | - |
| 1777358380 | 12.22° C | 73% | 1022.9 hPa | 0 mm | - | 0 W/m² | - |
| 1777358078 | 12.22° C | 72% | 1022.9 hPa | 0 mm | - | 0 W/m² | - |
| 1777357776 | 12.22° C | 72% | 1022.9 hPa | 0 mm | - | 0 W/m² | - |
| 1777357472 | 12.78° C | 72% | 1023.1 hPa | 0 mm | - | 0 W/m² | - |
| 1777357169 | 12.22° C | 72% | 1023.1 hPa | 0 mm | - | 0 W/m² | - |
| 1777356866 | 12.22° C | 72% | 1023.3 hPa | 0 mm | - | 0 W/m² | - |
| 1777356564 | 12.22° C | 72% | 1023.4 hPa | 0 mm | - | 0 W/m² | - |
| 1777356260 | 12.78° C | 72% | 1023.4 hPa | 0 mm | - | 0 W/m² | - |
| 1777355956 | 12.78° C | 71% | 1023.3 hPa | 0 mm | - | 0 W/m² | - |
| 1777355654 | 12.78° C | 70% | 1023.4 hPa | 0 mm | - | 0 W/m² | - |
| 1777355351 | 12.78° C | 70% | 1023.5 hPa | 0 mm | - | 0 W/m² | - |
| 1777355047 | 12.78° C | 71% | 1023.7 hPa | 0 mm | - | 0 W/m² | - |
| 1777354743 | 12.78° C | 70% | 1023.8 hPa | 0 mm | - | 0 W/m² | - |
* Rain latest hour (hover to see other rain measurements)
** Current wind speed in m/s (hover to see current wind gust speed)